NOAA 16 DEB

Satellite information

Favourite Embed

Satellite Type and Status

DEBRISIN ORBIT

Key statistics

Satellite NOAA 16 DEB at a glance.

Uptime

8994

Days in orbit

Revolutions

≈ 14.4

Per day

Orbit

SSO

Sun Synchronous Orbit

Inclination

98.8

Latest

Satellite identification and parameters

Extended collection of information and parameters for NOAA 16 DEB.

Object identification

Identified? True

Debris? True

Object name: NOAA 16 DEB

International designator: 2000-055MD

Object number (NORAD): 41505

Object ID (CCSDS): 41505

Country: UNITED STATES OF AMERICA (US)

Current information (Y/N): Y

RCS size: SMALL

Orbital parameters

Period: 100.23 minutes

Inclination: 98.8242 deg

SMA: 7147.568 km

Apoapsis: 795.576 km

Periapsis: 743.291 km

RAAN: 240.3744 deg

Eccentricy: 0.0036575

Argument of periapsis: 225.7444 deg

Mean anomaly: 134.0738 deg

Mean motion: 14.36697308 rev/day

Mean motion (dot): 0.00009134 rev/day2

B* drag term: 0.0030883 1/REarth

Two-line elements (TLE)

Creation date: May 7, 2025, 3:14 a.m.

Reference frame: TEME

Reference center: EARTH

Epoch: May 6, 2025, 1:16 a.m. UTC

TLE line 0: 0 NOAA 16 DEB

TLE line 1: 1 41505U 00055MD 25126.05328316 .00009134 00000-0 30883-2 0 9990

TLE line 2: 2 41505 98.8242 240.3744 0036575 225.7444 134.0738 14.36697308479247

Live tracking on map

Real-time ground track for satellite NOAA 16 DEB.

In-orbit conjunctions

A list of the most updated potential collisions computed for object NOAA 16 DEB.

Target Orbit TCA Probability of collision Miss distance Type
CZ-6A DEB LEO 2025-01-15 00:24:56 0.0001369853 533.0 (m) DEBRIS
IRIDIUM 26 LEO 2024-10-19 21:35:47 0.0001121922 16.0 (m) PAYLOAD

Associated space launch

The NOAA K, L and M POES satellites begin the fifth generation of improved environmental monitoring in support of NOAA missions. The instrument payload has significant improvements and additions/deletions. The instrument changes have effected the spacecraft subsystems and data formats.

NOAA 16 DEB was lifted into orbit during the mission ‘Titan II SLV | NOAA 16’, on board a Titan II SLV space rocket.

The launch took place on Sept. 21, 2000, 10:22 a.m. from Space Launch Complex 4W.

For more information about the launch, click the button.

Launch to space Titan II SLV | NOAA 16
Titan II SLV | NOAA 16

Agency: N/A

Status: Launch Successful

Launch date: Sept. 21, 2000, 10:22 a.m. UTC

Rocket: Titan II SLV

Launch pad: Space Launch Complex 4W

Location: Vandenberg SFB, CA, USA

...

Latest news about this satellite

There are no fresh news available about this satellite. Check back as we update our databases every day.


Newsletter sign-up

Weekly statistics, charts and insights to help you stay on top of the space industry.